(236920) = 2007 TO145 = 2006 GV26

Discovered at Socorro on 2007-10-06 by LINEAR.

Orbit

Orbit type: Main Belt

Note: WebGL enabled browser required.

epoch2023-02-25.0
epoch JD2460000.5
perihelion date2020-06-12.16760
perihelion JD2459012.66760
argument of perihelion (°)126.27929
ascending node (°)186.95554
inclination (°)4.42872
eccentricity0.2451544
perihelion distance (AU)2.0330855
Tisserand w.r.t. Jupiter3.3
ΔV w.r.t. Earth (km/sec)9.1
semimajor axis (AU)2.6933792
mean anomaly (°)220.26265
mean daily motion (°/day)0.22297570
aphelion distance (AU)3.354
period (years)4.42
P-vector [x]0.68469868
P-vector [y]-0.69100290
P-vector [z]-0.23173846
Q-vector [x]0.72876627
Q-vector [y]0.64503237
Q-vector [z]0.22985422
absolute magnitude16.85
phase slope0.15
uncertainty0
referenceMPEC 2023-F102
observations used345
oppositions13
arc length (days)10337
first opposition used1994
last opposition used2023
residual rms (arc-secs)0.82
perturbers coarse indicatorM-v
perturbers precise indicator003Ek
first observation date used1994-12-01.0
last observation date used2023-03-21.0
computer nameMPCLINUX
JD of orbit computation2455872.638524
perihelion JD uncertainty (days)7.4097E-05
argument of perihelion uncertainty (°)6.7509E-05
ascending node uncertainty (°)6.4078E-05
inclination uncertainty (°)8.1940E-06
eccentricity uncertainty 4.2684E-08
perihelion distance uncertainty (AU)1.2097E-07
Minimum Orbit Intersection Distances (in AU)
for orbit epoch: 2460000.5, reference: E2023-FA2
Mercury1.61135
Venus1.31193
Earth1.02186
Mars0.65993
Jupiter1.95972
Saturn5.81315
Uranus15.163
Neptune26.9616

Observations

359 total observations over interval: 1994 12 01.31903 – 2023 03 21.493256
These data are available for download (format description).

Date (UT) J2000 RA J2000 Dec Magn Location Ref
1994 12 01.31903 03 53 03.44 +14 28 34.0 20.3 V 691 – Steward Observatory, Kitt Peak-Spacewatch MPS 286959
1994 12 01.35528 03 53 01.37 +14 28 27.3   691 – Steward Observatory, Kitt Peak-Spacewatch MPS 286959
1998 10 28.15341 00 07 16.08 -00 19 28.1 20.1 V 691 – Steward Observatory, Kitt Peak-Spacewatch MPS 222612
1998 10 28.17397 00 07 15.71 -00 19 33.1 20.1 V 691 – Steward Observatory, Kitt Peak-Spacewatch MPS 222612
1998 10 28.19463 00 07 15.32 -00 19 38.0 20.5 V 691 – Steward Observatory, Kitt Peak-Spacewatch MPS 222612
1998 11 19.07085 00 07 38.36 -00 54 54.0 20.5 V 691 – Steward Observatory, Kitt Peak-Spacewatch MPS 222612
1998 11 19.09157 00 07 38.73 -00 54 52.9 20.4 V 691 – Steward Observatory, Kitt Peak-Spacewatch MPS 222612
1998 11 19.11281 00 07 39.08 -00 54 51.4 20.3 V 691 – Steward Observatory, Kitt Peak-Spacewatch MPS 222612
2006 04 02.35273 14 31 58.39 -12 13 12.3 20.8 V 691 – Steward Observatory, Kitt Peak-Spacewatch MPS 168899
2006 04 02.37002 14 31 57.78 -12 13 07.6 20.7 V 691 – Steward Observatory, Kitt Peak-Spacewatch MPS 168899
2006 04 02.38732 14 31 57.19 -12 13 02.4 20.5 V 691 – Steward Observatory, Kitt Peak-Spacewatch MPS 168899
2006 04 07.33772 14 28 57.20 -11 47 44.2 20.9 V 691 – Steward Observatory, Kitt Peak-Spacewatch MPS 168899
2006 04 07.35505 14 28 56.45 -11 47 38.5 20.9 V 691 – Steward Observatory, Kitt Peak-Spacewatch MPS 168899
2006 04 07.37236 14 28 55.76 -11 47 33.1 20.6 V 691 – Steward Observatory, Kitt Peak-Spacewatch MPS 168899
2006 04 26.21871 14 14 02.72 -09 54 59.5 20.8 V 691 – Steward Observatory, Kitt Peak-Spacewatch MPS 222612
2006 04 26.23612 14 14 01.81 -09 54 53.0 20.8 V 691 – Steward Observatory, Kitt Peak-Spacewatch MPS 222612
2006 04 26.26038 14 14 00.50 -09 54 43.9 20.7 V 691 – Steward Observatory, Kitt Peak-Spacewatch MPS 222612
2006 05 25.205036 13 51 57.232 -07 22 02.06 20.69 V 645 – Apache Point-Sloan Digital Sky Survey MPS 390376
2006 05 25.208508 13 51 57.113 -07 22 01.32 21.58   645 – Apache Point-Sloan Digital Sky Survey MPS 390376
2007 10 06.25999 02 11 37.13 +10 48 31.5 19.3   704 – Lincoln Laboratory ETS, New Mexico MPS 220861
2007 10 06.27120 02 11 36.66 +10 48 28.6 20.0   704 – Lincoln Laboratory ETS, New Mexico MPS 220861
2007 10 06.28201 02 11 36.17 +10 48 23.3 19.4   704 – Lincoln Laboratory ETS, New Mexico MPS 220861
2007 10 06.29281 02 11 35.62 +10 48 18.0 19.5   704 – Lincoln Laboratory ETS, New Mexico MPS 220861
2007 10 06.30362 02 11 35.18 +10 48 15.1 19.9   704 – Lincoln Laboratory ETS, New Mexico MPS 220861
2007 10 09.21499 02 09 22.68 +10 29 18.2 20.2 V 691 – Steward Observatory, Kitt Peak-Spacewatch MPS 222612
2007 10 09.23262 02 09 21.83 +10 29 11.3 20.3 V 691 – Steward Observatory, Kitt Peak-Spacewatch MPS 222612
2007 10 09.25025 02 09 20.96 +10 29 04.4 20.2 V 691 – Steward Observatory, Kitt Peak-Spacewatch MPS 222612
2007 10 11.26899 02 07 44.29 +10 15 36.8 19.2   704 – Lincoln Laboratory ETS, New Mexico MPS 220861
2007 10 11.29118 02 07 43.13 +10 15 27.3 19.8   704 – Lincoln Laboratory ETS, New Mexico MPS 220861
2007 10 11.30223 02 07 42.60 +10 15 23.1 19.7   704 – Lincoln Laboratory ETS, New Mexico MPS 220861
2007 10 16.65251 02 03 13.17 +09 38 53.1 19.5 R 300 – Bisei Spaceguard Center-BATTeRS MPS 220861
2007 10 16.65519 02 03 12.97 +09 38 52.0 19.4 R 300 – Bisei Spaceguard Center-BATTeRS MPS 220861
2007 10 16.65785 02 03 12.84 +09 38 51.2 19.4 R 300 – Bisei Spaceguard Center-BATTeRS MPS 220861
2007 10 16.66051 02 03 12.70 +09 38 50.2 19.3 R 300 – Bisei Spaceguard Center-BATTeRS MPS 220861
2007 10 16.66316 02 03 12.59 +09 38 48.4 19.7 R 300 – Bisei Spaceguard Center-BATTeRS MPS 220861
2007 10 16.66583 02 03 12.43 +09 38 47.5 19.5 R 300 – Bisei Spaceguard Center-BATTeRS MPS 220861
2007 10 16.66850 02 03 12.27 +09 38 46.6 19.3 R 300 – Bisei Spaceguard Center-BATTeRS MPS 220861
2007 10 17.63712 02 02 22.13 +09 32 07.6 20.2 R 300 – Bisei Spaceguard Center-BATTeRS MPS 220861
2007 10 17.63978 02 02 21.97 +09 32 05.3 20.1 R 300 – Bisei Spaceguard Center-BATTeRS MPS 220861
2007 10 17.64245 02 02 21.86 +09 32 04.4 20.0 R 300 – Bisei Spaceguard Center-BATTeRS MPS 220861
2007 10 17.64511 02 02 21.73 +09 32 03.5 20.0 R 300 – Bisei Spaceguard Center-BATTeRS MPS 220861
2007 10 20.25135 02 00 05.50 +09 14 10.1 19.0   704 – Lincoln Laboratory ETS, New Mexico MPS 222612
2007 10 20.26080 02 00 05.07 +09 14 06.0 19.2 C 704 – Lincoln Laboratory ETS, New Mexico MPS 288010
2007 10 20.26271 02 00 04.99 +09 14 04.8 19.7   704 – Lincoln Laboratory ETS, New Mexico MPS 222612
2007 10 20.27217 02 00 04.54 +09 14 01.7 19.6 C 704 – Lincoln Laboratory ETS, New Mexico MPS 288010
2007 10 20.27408 02 00 04.53 +09 14 00.9 19.4   704 – Lincoln Laboratory ETS, New Mexico MPS 222612
2007 10 20.28354 02 00 03.86 +09 13 58.0 19.4 C 704 – Lincoln Laboratory ETS, New Mexico MPS 288010
2007 10 20.28545 02 00 03.81 +09 13 55.3 19.7   704 – Lincoln Laboratory ETS, New Mexico MPS 222612
2007 10 20.29498 02 00 03.34 +09 13 53.8 18.9 C 704 – Lincoln Laboratory ETS, New Mexico MPS 288010
2007 10 20.29515 02 00 03.34 +09 13 53.7 18.6 V 703 – Catalina Sky Survey MPS 222612
2007 10 20.29689 02 00 03.25 +09 13 51.1 19.8   704 – Lincoln Laboratory ETS, New Mexico MPS 222612
2007 10 20.30327 02 00 02.88 +09 13 49.5 18.9 V 703 – Catalina Sky Survey MPS 222612
2007 10 20.30636 02 00 02.62 +09 13 47.7 19.4 C 704 – Lincoln Laboratory ETS, New Mexico MPS 288010
2007 10 20.31141 02 00 02.37 +09 13 45.7 19.4 V 703 – Catalina Sky Survey MPS 222612
2007 10 20.31955 02 00 01.98 +09 13 41.9 19.5 V 703 – Catalina Sky Survey MPS 222612
2007 10 21.20517 01 59 15.72 +09 07 39.5   691 – Steward Observatory, Kitt Peak-Spacewatch MPS 222612
2007 10 21.22277 01 59 14.81 +09 07 31.3   691 – Steward Observatory, Kitt Peak-Spacewatch MPS 222612
2007 10 21.24039 01 59 13.82 +09 07 24.7   691 – Steward Observatory, Kitt Peak-Spacewatch MPS 222612
2007 11 05.20239 01 46 46.17 +07 32 49.7 20.0   704 – Lincoln Laboratory ETS, New Mexico MPS 225033
2007 11 05.21441 01 46 45.64 +07 32 47.1 19.8   704 – Lincoln Laboratory ETS, New Mexico MPS 225033
2007 11 05.22643 01 46 45.03 +07 32 43.0 20.1   704 – Lincoln Laboratory ETS, New Mexico MPS 225033
2007 11 05.23847 01 46 44.43 +07 32 38.6 20.1   704 – Lincoln Laboratory ETS, New Mexico MPS 225033
2007 11 05.25050 01 46 43.97 +07 32 35.5 20.0   704 – Lincoln Laboratory ETS, New Mexico MPS 225033
2007 11 14.19426 01 40 46.27 +06 48 52.4 19.5 C 704 – Lincoln Laboratory ETS, New Mexico MPS 288010
2007 11 14.20652 01 40 45.85 +06 48 48.4 19.5 C 704 – Lincoln Laboratory ETS, New Mexico MPS 288010
2007 11 14.21879 01 40 45.48 +06 48 47.6 19.6 C 704 – Lincoln Laboratory ETS, New Mexico MPS 288010
2007 11 14.23106 01 40 44.86 +06 48 44.1 19.6 C 704 – Lincoln Laboratory ETS, New Mexico MPS 288010
2007 11 14.24336 01 40 44.57 +06 48 40.8 19.7 C 704 – Lincoln Laboratory ETS, New Mexico MPS 288010
2010 02 17.43746 12 09 34.19 -02 41 57.1 21.0 V 691 – Steward Observatory, Kitt Peak-Spacewatch MPS 313409
2010 02 17.45509 12 09 33.65 -02 41 53.4 21.7 V 691 – Steward Observatory, Kitt Peak-Spacewatch MPS 313409
2010 02 17.47271 12 09 33.13 -02 41 49.4 21.5 V 691 – Steward Observatory, Kitt Peak-Spacewatch MPS 313409
2010 03 15.31892 11 52 03.25 -00 24 04.8 21.1 V G96 – Mt. Lemmon Survey MPS 317987
2010 03 15.32714 11 52 02.82 -00 24 01.3 20.5 V G96 – Mt. Lemmon Survey MPS 317987
2010 03 15.33535 11 52 02.42 -00 23 58.4 20.5 V G96 – Mt. Lemmon Survey MPS 317987
2010 03 15.34351 11 52 02.02 -00 23 55.4 20.6 V G96 – Mt. Lemmon Survey MPS 317987
2011 07 26.40255 20 49 13.953 -09 57 22.61 20.0 g F51 – Pan-STARRS 1, Haleakala MPS 387732
2011 07 26.41273 20 49 13.491 -09 57 25.16 19.9 g F51 – Pan-STARRS 1, Haleakala MPS 387732
2011 07 26.42391 20 49 12.978 -09 57 27.83 19.4 r F51 – Pan-STARRS 1, Haleakala MPS 387732
2011 07 26.43370 20 49 12.531 -09 57 30.19 19.4 r F51 – Pan-STARRS 1, Haleakala MPS 387732
2011 09 24.19059 20 31 42.06 -14 29 40.1 20.5 V G96 – Mt. Lemmon Survey MPS 394072
2011 09 24.19583 20 31 42.24 -14 29 40.7 20.6 V G96 – Mt. Lemmon Survey MPS 394072
2011 09 24.20111 20 31 42.38 -14 29 41.1 20.4 V G96 – Mt. Lemmon Survey MPS 394072
